Location: Crocus Hill
(18.2167°N, 63.0667°W)
Time: 13:54:24
(UTC+00:00)

COSMO-SKYMED 1 - Pass Details

Date: 26 January 2020
Orbit: 621 x 623 km, 97.9° (Epoch: 23 February)

Event Time Altitude Azimuth Distance (km) Brightness Sun altitude
Rises 10:07:16 0° 183° (S) 2,889 6.2 -9.7°
Reaches altitude 10° 10:09:34 10° 191° (SSW) 1,985 5.2 -9.2°
Maximum altitude 10:13:35 38° 260° (W) 947 3.1 -8.3°
Drops below altitude 10° 10:17:37 10° 329° (NNW) 1,989 4.7 -7.4°
Sets 10:19:56 0° 337° (NNW) 2,896 5.6 -6.9°
